Weather History for KAFP - October, 2012

Change the Weather History Date:

Thursday, October 25, 2012

  Actual Average (KCLT) Record (KCLT)
Temperature  
Mean Temperature 63 °F 57 °F  
Max Temperature 80 °F 69 °F 84 °F (1931)
Min Temperature 46 °F 46 °F 27 °F (2006)
Degree Days  
Heating Degree Days 2 8  
Month to date heating degree days 130  
Since 1 July heating degree days 153  
Cooling Degree Days 0 1  
Month to date cooling degree days 38  
Year to date cooling degree days 1513  
Growing Degree Days 13 (Base 50)    
Moisture  
Dew Point 54 °F    
Average Humidity 78    
Maximum Humidity 100    
Minimum Humidity 42    
Precipitation  
Precipitation 0.00 in 0.09 in 2.65 in (1990)
Month to date precipitation 2.81  
Year to date precipitation 34.65  
Snow  
Snow 0.00 in 0.00 in 0.00 in ()
Month to date snowfall 0.0  
Since 1 July snowfall 0.0  
Since 1 September snowfall 0.0  
Snow Depth -    
Sea Level Pressure  
Sea Level Pressure 30.12 in    
Wind  
Wind Speed 1 mph (ENE)    
Max Wind Speed 7 mph    
Max Gust Speed -    
Visibility 8 miles    
Events Fog    
T = Trace of Precipitation, MM = Missing Value Source: NWS Daily Summary

Daily Weather History Graph

Daily Weather History Graph

Search for Another Location

Airport or City:

Trip Planner

Search our weather history database for the weather conditions in past years. The results will help you decide how hot, cold, wet, or windy it might be!

Date:

Astronomy

Oct. 25, 2012 Rise Set
Actual Time 7:35 AM EDT 6:32 PM EDT
Civil Twilight 7:09 AM EDT 6:58 PM EDT
Nautical Twilight 6:39 AM EDT 7:28 PM EDT
Astronomical Twilight 6:10 AM EDT 7:57 PM EDT
Moon 4:11 PM EDT (10/25) 3:38 AM EDT (10/25)
Length of Visible Light 11h 49m
Length of Day
10h 57m
Waxing Gibbous, 84% of the Moon is Illuminated
Oct 25
Waxing Gibbous
Oct 29
Full
Nov 6
Last Quarter
Nov 13
New
Nov 20
First Quarter

Hourly Weather History & Observations

Time (EDT) Temp. Heat Index Dew Point Humidity Pressure Visibility Wind Dir Wind Speed Gust Speed Precip Events Conditions
12:15 AM 51.8 °F - 50.0 °F 94% 30.14 in 10.0 mi Calm Calm - N/A   Clear
12:35 AM 51.8 °F - 50.0 °F 94% 30.13 in 10.0 mi Calm Calm - N/A   Clear
12:55 AM 51.8 °F - 50.0 °F 94% 30.14 in 7.0 mi Calm Calm - N/A   Clear
1:35 AM 51.8 °F - 50.0 °F 94% 30.14 in 5.0 mi Calm Calm - N/A   Clear
1:55 AM 51.8 °F - 50.0 °F 94% 30.14 in 7.0 mi Calm Calm - N/A   Clear
2:15 AM 50.0 °F - 48.2 °F 94% 30.14 in 10.0 mi Calm Calm - N/A   Scattered Clouds
2:35 AM 50.0 °F - 48.2 °F 94% 30.13 in 2.0 mi Calm Calm - N/A   Mist
2:55 AM 50.0 °F - 48.2 °F 94% 30.13 in 0.2 mi Calm Calm - N/A Fog Fog
3:35 AM 50.0 °F - 50.0 °F 100% 30.12 in 3.0 mi Calm Calm - N/A   Mist
3:55 AM 50.0 °F - 48.2 °F 94% 30.12 in 0.2 mi Calm Calm - N/A Fog Fog
4:15 AM 48.2 °F - 46.4 °F 93% 30.11 in 0.5 mi Calm Calm - N/A Fog Fog
4:35 AM 48.2 °F - 46.4 °F 93% 30.12 in 0.2 mi Calm Calm - N/A Fog Fog
4:55 AM 46.4 °F - 46.4 °F 100% 30.12 in 0.2 mi Calm Calm - N/A Fog Fog
5:15 AM 48.2 °F - 46.4 °F 93% 30.12 in 0.5 mi Calm Calm - N/A Fog Fog
5:35 AM 46.4 °F - 46.4 °F 100% 30.12 in 5.0 mi Calm Calm - N/A   Clear
5:55 AM 48.2 °F - 46.4 °F 93% 30.13 in 1.2 mi Calm Calm - N/A   Mostly Cloudy
6:15 AM 46.4 °F - 46.4 °F 100% 30.13 in 2.0 mi Calm Calm - N/A   Overcast
6:35 AM 46.4 °F - 46.4 °F 100% 30.13 in 5.0 mi Calm Calm - N/A   Scattered Clouds
6:55 AM 46.4 °F - 44.6 °F 93% 30.13 in 5.0 mi Calm Calm - N/A   Clear
7:15 AM 46.4 °F - 44.6 °F 93% 30.13 in 5.0 mi Calm Calm - N/A   Scattered Clouds
7:35 AM 46.4 °F - 44.6 °F 93% 30.15 in 0.8 mi Calm Calm - N/A   Overcast
7:55 AM 46.4 °F - 44.6 °F 93% 30.15 in 0.5 mi Calm Calm - N/A Fog Fog
8:15 AM 46.4 °F - 46.4 °F 100% 30.15 in 4.0 mi Calm Calm - N/A   Scattered Clouds
8:35 AM 50.0 °F - 48.2 °F 94% 30.15 in 4.0 mi Calm Calm - N/A   Scattered Clouds
8:55 AM 51.8 °F - 51.8 °F 100% 30.16 in 7.0 mi Calm Calm - N/A   Clear
9:35 AM 55.4 °F - 55.4 °F 100% 30.16 in 10.0 mi Calm Calm - N/A   Clear
9:55 AM 60.8 °F - 55.4 °F 82% 30.17 in 10.0 mi Calm Calm - N/A   Clear
10:15 AM 62.6 °F - 55.4 °F 77% 30.17 in 10.0 mi Calm Calm - N/A   Clear
10:55 AM 68.0 °F - 59.0 °F 73% 30.17 in 10.0 mi Calm Calm - N/A   Clear
11:15 AM 71.6 °F - 59.0 °F 64% 30.17 in 10.0 mi ENE 3.5 mph - N/A   Clear
11:35 AM 71.6 °F - 59.0 °F 64% 30.16 in 10.0 mi NE 3.5 mph - N/A   Clear
11:55 AM 73.4 °F - 59.0 °F 61% 30.16 in 10.0 mi NE 4.6 mph - N/A   Clear
12:15 PM 75.2 °F - 59.0 °F 57% 30.16 in 10.0 mi ENE 3.5 mph - N/A   Clear
12:35 PM 77.0 °F - 59.0 °F 54% 30.15 in 10.0 mi Calm Calm - N/A   Clear
1:15 PM 78.8 °F - 59.0 °F 51% 30.13 in 10.0 mi ENE 3.5 mph - N/A   Scattered Clouds
1:35 PM 78.8 °F - 59.0 °F 51% 30.12 in 10.0 mi Calm Calm - N/A   Scattered Clouds
1:55 PM 78.8 °F - 57.2 °F 47% 30.12 in 10.0 mi SE 3.5 mph - N/A   Clear
2:15 PM 78.8 °F - 55.4 °F 44% 30.11 in 10.0 mi SE 5.8 mph - N/A   Clear
2:35 PM 78.8 °F - 55.4 °F 44% 30.10 in 10.0 mi Calm Calm - N/A   Clear
2:55 PM 80.6 °F 80.5 °F 55.4 °F 42% 30.10 in 10.0 mi East 5.8 mph - N/A   Scattered Clouds
3:15 PM 78.8 °F - 55.4 °F 44% 30.10 in 7.0 mi NE 4.6 mph - N/A   Scattered Clouds
3:35 PM 78.8 °F - 55.4 °F 44% 30.09 in 10.0 mi ENE 4.6 mph - N/A   Clear
4:15 PM 80.6 °F 80.5 °F 55.4 °F 42% 30.08 in 10.0 mi East 4.6 mph - N/A   Scattered Clouds
4:35 PM 78.8 °F - 53.6 °F 42% 30.08 in 10.0 mi East 6.9 mph - N/A   Scattered Clouds
4:55 PM 78.8 °F - 55.4 °F 44% 30.08 in 10.0 mi Calm Calm - N/A   Scattered Clouds
5:15 PM 78.8 °F - 55.4 °F 44% 30.08 in 10.0 mi Calm Calm - N/A   Clear
5:35 PM 78.8 °F - 55.4 °F 44% 30.08 in 10.0 mi Calm Calm - N/A   Clear
5:55 PM 78.8 °F - 55.4 °F 44% 30.08 in 10.0 mi Calm Calm - N/A   Clear
6:15 PM 77.0 °F - 57.2 °F 50% 30.09 in 5.0 mi Calm Calm - N/A   Haze
6:35 PM 71.6 °F - 60.8 °F 69% 30.09 in 10.0 mi Calm Calm - N/A   Clear
6:55 PM 69.8 °F - 60.8 °F 73% 30.10 in 10.0 mi Calm Calm - N/A   Clear
7:15 PM 66.2 °F - 60.8 °F 83% 30.10 in 10.0 mi Calm Calm - N/A   Clear
7:35 PM 64.4 °F - 60.8 °F 88% 30.11 in 10.0 mi Calm Calm - N/A   Clear
7:55 PM 62.6 °F - 59.0 °F 88% 30.11 in 10.0 mi Calm Calm - N/A   Scattered Clouds
8:15 PM 62.6 °F - 59.0 °F 88% 30.11 in 10.0 mi Calm Calm - N/A   Mostly Cloudy
8:35 PM 64.4 °F - 59.0 °F 83% 30.11 in 10.0 mi Calm Calm - N/A   Overcast
8:55 PM 62.6 °F - 59.0 °F 88% 30.11 in 10.0 mi Calm Calm - N/A   Mostly Cloudy
9:15 PM 62.6 °F - 59.0 °F 88% 30.11 in 10.0 mi Calm Calm - N/A   Scattered Clouds
9:35 PM 60.8 °F - 59.0 °F 94% 30.10 in 10.0 mi Calm Calm - N/A   Clear
9:55 PM 60.8 °F - 57.2 °F 88% 30.10 in 10.0 mi Calm Calm - N/A   Clear
10:15 PM 59.0 °F - 57.2 °F 94% 30.10 in 10.0 mi Calm Calm - N/A   Clear
10:55 PM 59.0 °F - 57.2 °F 94% 30.09 in 10.0 mi Calm Calm - N/A   Clear
11:35 PM 57.2 °F - 55.4 °F 94% 30.09 in 10.0 mi Calm Calm - N/A   Clear
11:55 PM 57.2 °F - 55.4 °F 94% 30.09 in 10.0 mi Calm Calm - N/A   Clear